Time,TemperatureF,DewpointF,PressureIn,WindDirection,WindDirectionDegrees,WindSpeedMPH,WindSpeedGustMPH,Humidity,HourlyPrecipIn,Conditions,Clouds,dailyrainin,SolarRadiationWatts/m^2,SoftwareType,DateUTC
2013-05-12 00:00:00,36.0,34.0,-100.00,WSW,247,0.0,-999.0,93,-99.99,,,-99.99,0.000000,,2013-05-12 04:00:00,
2013-05-12 00:43:00,36.0,34.0,-100.00,WSW,247,0.0,-999.0,93,-99.99,,,-99.99,0.000000,,2013-05-12 04:43:00,
2013-05-12 00:52:00,36.0,34.0,-100.00,WSW,247,0.0,-999.0,93,-99.99,,,-99.99,0.000000,,2013-05-12 04:52:00,
2013-05-12 01:00:00,37.0,35.0,-100.00,WSW,247,0.0,-999.0,90,-99.99,,,-99.99,0.000000,,2013-05-12 05:00:00,
2013-05-12 01:42:00,37.0,35.0,-100.00,WSW,247,0.0,-999.0,90,-99.99,,,-99.99,0.000000,,2013-05-12 05:42:00,
2013-05-12 01:52:00,37.0,35.0,-100.00,WSW,247,0.0,-999.0,90,-99.99,,,-99.99,0.000000,,2013-05-12 05:52:00,
2013-05-12 04:00:00,40.0,31.0,-100.00,WNW,292,11.0,-999.0,69,-99.99,,,-99.99,0.000000,,2013-05-12 08:00:00,
2013-05-12 04:42:00,40.0,31.0,-100.00,WNW,292,11.0,-999.0,69,-99.99,,,-99.99,0.000000,,2013-05-12 08:42:00,
2013-05-12 04:53:00,40.0,31.0,-100.00,WNW,292,11.0,-999.0,69,-99.99,,,-99.99,0.000000,,2013-05-12 08:53:00,
2013-05-12 05:00:00,39.0,29.0,-100.00,NW,315,9.0,-999.0,68,-99.99,,,-99.99,0.000000,,2013-05-12 09:00:00,
2013-05-12 05:43:00,39.0,29.0,-100.00,NW,315,9.0,-999.0,68,-99.99,,,-99.99,0.000000,,2013-05-12 09:43:00,
2013-05-12 05:53:00,39.0,29.0,-100.00,NW,315,9.0,-999.0,68,-99.99,,,-99.99,0.000000,,2013-05-12 09:53:00,
2013-05-12 06:00:00,38.0,30.0,-100.00,NW,315,8.0,-999.0,72,-99.99,,,-99.99,0.000000,,2013-05-12 10:00:00,
2013-05-12 06:42:00,38.0,30.0,-100.00,NW,315,8.0,-999.0,72,-99.99,,,-99.99,0.000000,,2013-05-12 10:42:00,
2013-05-12 06:52:00,38.0,30.0,-100.00,NW,315,8.0,-999.0,72,-99.99,,,-99.99,0.000000,,2013-05-12 10:52:00,
2013-05-12 07:00:00,39.0,28.0,-100.00,WNW,292,10.0,-999.0,66,-99.99,,,-99.99,8.120000,,2013-05-12 11:00:00,
2013-05-12 07:42:00,39.0,28.0,-100.00,WNW,292,10.0,-999.0,66,-99.99,,,-99.99,8.120000,,2013-05-12 11:42:00,
2013-05-12 07:52:00,39.0,28.0,-100.00,WNW,292,10.0,-999.0,66,-99.99,,,-99.99,8.120000,,2013-05-12 11:52:00,
2013-05-12 09:00:00,39.0,28.0,-100.00,WNW,292,12.0,-999.0,63,-99.99,,,-99.99,154.279999,,2013-05-12 13:00:00,
2013-05-12 09:42:00,39.0,28.0,-100.00,WNW,292,12.0,-999.0,63,-99.99,,,-99.99,154.279999,,2013-05-12 13:42:00,
2013-05-12 09:52:00,39.0,28.0,-100.00,WNW,292,12.0,-999.0,63,-99.99,,,-99.99,154.279999,,2013-05-12 13:52:00,
2013-05-12 10:00:00,40.0,28.0,-100.00,NW,315,12.0,-999.0,60,-99.99,,,-99.99,270.279999,,2013-05-12 14:00:00,
2013-05-12 10:42:00,40.0,28.0,-100.00,NW,315,12.0,-999.0,60,-99.99,,,-99.99,270.279999,,2013-05-12 14:42:00,
2013-05-12 10:52:00,40.0,28.0,-100.00,NW,315,12.0,-999.0,60,-99.99,,,-99.99,270.279999,,2013-05-12 14:52:00,
2013-05-12 11:00:00,40.0,29.0,-100.00,NW,315,11.0,-999.0,64,-99.99,,,-99.99,238.960007,,2013-05-12 15:00:00,
2013-05-12 11:42:00,40.0,29.0,-100.00,NW,315,11.0,-999.0,64,-99.99,,,-99.99,238.960007,,2013-05-12 15:42:00,
2013-05-12 11:53:00,40.0,29.0,-100.00,NW,315,11.0,-999.0,64,-99.99,,,-99.99,238.960007,,2013-05-12 15:53:00,
2013-05-12 12:00:00,40.0,29.0,-100.00,NW,315,11.0,-999.0,64,-99.99,,,-99.99,303.920013,,2013-05-12 16:00:00,
2013-05-12 12:42:00,40.0,29.0,-100.00,NW,315,11.0,-999.0,64,-99.99,,,-99.99,303.920013,,2013-05-12 16:42:00,
2013-05-12 12:53:00,40.0,29.0,-100.00,NW,315,11.0,-999.0,64,-99.99,,,-99.99,303.920013,,2013-05-12 16:53:00,
2013-05-12 13:00:00,40.0,30.0,-100.00,WNW,292,10.0,-999.0,66,-99.99,,,-99.99,250.559998,,2013-05-12 17:00:00,
2013-05-12 13:42:00,40.0,30.0,-100.00,WNW,292,10.0,-999.0,66,-99.99,,,-99.99,250.559998,,2013-05-12 17:42:00,
2013-05-12 13:53:00,40.0,30.0,-100.00,WNW,292,10.0,-999.0,66,-99.99,,,-99.99,250.559998,,2013-05-12 17:53:00,
2013-05-12 14:00:00,41.0,30.0,-100.00,NW,315,10.0,-999.0,64,-99.99,,,-99.99,346.839996,,2013-05-12 18:00:00,
2013-05-12 14:42:00,41.0,30.0,-100.00,NW,315,10.0,-999.0,64,-99.99,,,-99.99,346.839996,,2013-05-12 18:42:00,
2013-05-12 14:52:00,41.0,30.0,-100.00,NW,315,10.0,-999.0,64,-99.99,,,-99.99,346.839996,,2013-05-12 18:52:00,
2013-05-12 15:00:00,42.0,29.0,-100.00,NW,315,11.0,-999.0,59,-99.99,,,-99.99,496.480011,,2013-05-12 19:00:00,
2013-05-12 15:42:00,42.0,29.0,-100.00,NW,315,11.0,-999.0,59,-99.99,,,-99.99,496.480011,,2013-05-12 19:42:00,
2013-05-12 15:52:00,42.0,29.0,-100.00,NW,315,11.0,-999.0,59,-99.99,,,-99.99,496.480011,,2013-05-12 19:52:00,
2013-05-12 16:00:00,44.0,29.0,-100.00,WNW,292,10.0,-999.0,55,-99.99,,,-99.99,582.320007,,2013-05-12 20:00:00,
2013-05-12 16:42:00,44.0,29.0,-100.00,WNW,292,10.0,-999.0,55,-99.99,,,-99.99,582.320007,,2013-05-12 20:42:00,
2013-05-12 16:52:00,44.0,29.0,-100.00,WNW,292,10.0,-999.0,55,-99.99,,,-99.99,582.320007,,2013-05-12 20:52:00,
2013-05-12 17:00:00,45.0,28.0,-100.00,WNW,292,10.0,-999.0,52,-99.99,,,-99.99,646.119995,,2013-05-12 21:00:00,
2013-05-12 17:42:00,45.0,28.0,-100.00,WNW,292,10.0,-999.0,52,-99.99,,,-99.99,646.119995,,2013-05-12 21:42:00,
2013-05-12 17:53:00,45.0,28.0,-100.00,WNW,292,10.0,-999.0,52,-99.99,,,-99.99,646.119995,,2013-05-12 21:53:00,
2013-05-12 18:00:00,45.0,27.0,-100.00,WNW,292,9.0,-999.0,49,-99.99,,,-99.99,491.839996,,2013-05-12 22:00:00,
2013-05-12 18:42:00,45.0,27.0,-100.00,WNW,292,9.0,-999.0,49,-99.99,,,-99.99,491.839996,,2013-05-12 22:42:00,
2013-05-12 18:52:00,45.0,27.0,-100.00,WNW,292,9.0,-999.0,49,-99.99,,,-99.99,491.839996,,2013-05-12 22:52:00,
2013-05-12 19:00:00,45.0,27.0,-100.00,WSW,247,7.0,-999.0,47,-99.99,,,-99.99,343.359985,,2013-05-12 23:00:00,
2013-05-12 19:42:00,45.0,27.0,-100.00,WSW,247,7.0,-999.0,47,-99.99,,,-99.99,343.359985,,2013-05-12 23:42:00,
2013-05-12 19:52:00,45.0,27.0,-100.00,WSW,247,7.0,-999.0,47,-99.99,,,-99.99,343.359985,,2013-05-12 23:52:00,
2013-05-12 21:00:00,43.0,28.0,-100.00,NW,315,1.0,-999.0,55,-99.99,,,-99.99,38.279999,,2013-05-13 01:00:00,
2013-05-12 21:42:00,43.0,28.0,-100.00,NW,315,1.0,-999.0,55,-99.99,,,-99.99,38.279999,,2013-05-13 01:42:00,
2013-05-12 21:52:00,43.0,28.0,-100.00,NW,315,1.0,-999.0,55,-99.99,,,-99.99,38.279999,,2013-05-13 01:52:00,
2013-05-12 22:00:00,34.0,31.0,-100.00,NW,315,0.0,-999.0,87,-99.99,,,-99.99,0.000000,,2013-05-13 02:00:00,
2013-05-12 22:42:00,34.0,31.0,-100.00,NW,315,0.0,-999.0,87,-99.99,,,-99.99,0.000000,,2013-05-13 02:42:00,
2013-05-12 22:52:00,34.0,31.0,-100.00,NW,315,0.0,-999.0,87,-99.99,,,-99.99,0.000000,,2013-05-13 02:52:00,
2013-05-12 23:00:00,32.0,30.0,-100.00,NW,315,0.0,-999.0,92,-99.99,,,-99.99,0.000000,,2013-05-13 03:00:00,
2013-05-12 23:42:00,32.0,30.0,-100.00,NW,315,0.0,-999.0,92,-99.99,,,-99.99,0.000000,,2013-05-13 03:42:00,
2013-05-12 23:53:00,32.0,30.0,-100.00,NW,315,0.0,-999.0,92,-99.99,,,-99.99,0.000000,,2013-05-13 03:53:00,